Regional Weather Roundup
Issued by NWS

Home | Current Version | Previous Version | Text Only | Print | Product List | Glossary Off
Versions: 1 2 3 4 5 6 7 8 9 10 11 12 13 14 15 16 17 18 19 20 21 22 23 24 25 26 27 28 29 30 31 32 33 34 35 36 37 38 39 40 41 42 43 44 45 46 47 48 49 50

000
ASUS45 KBOU 222207
RWRCO

WEATHER ROUNDUP FOR COLORADO
NATIONAL WEATHER SERVICE DENVER/BOULDER CO
300 PM MST SAT NOV 22 2014

NOTE: "FAIR" INDICATES FEW OR NO CLOUDS BELOW 12000 FEET WITH NO
SIGNIFICANT WEATHER AND/OR OBSTRUCTIONS TO VISIBILITY.

COZ001>005-013-030-031-222300-
...NORTHWEST COLORADO...

CITY           SKY/WX    TMP DP  RH WIND       PRES   REMARKS
CRAIG          LGT RAIN  38  29  70 SW10      29.82R
HAYDEN         CLOUDY    37  27  65 W22G29    29.83R
MEEKER         LGT RAIN  37  32  82 SW9       29.87R
MOUNT WERNER   NOT AVBL
STEAMBOAT SPGS CLOUDY    33  31  92 W8G16     29.84R WCI  26
WALDEN         CLOUDY    34  27  75 SW25G35   29.79F WCI  21
$$

COZ006>008-011-222300-
...WEST CENTRAL VALLEYS...

CITY           SKY/WX    TMP DP  RH WIND       PRES   REMARKS
GRAND JUNCTION CLOUDY    41  22  46 VRB6      29.87F
MONTROSE       CLOUDY    52  20  28 NW6       29.87F
EAGLE          CLOUDY    46  21  36 SW10      29.84F
RIFLE          LGT RAIN  44  23  43 W12       29.89R
DELTA          CLOUDY    55  22  27 CALM      29.86S
NUCLA          CLOUDY    52  19  28 S21       29.93F
$$

COZ017>023-064>068-222300-
...SOUTHWEST COLORADO...

CITY           SKY/WX    TMP DP  RH WIND       PRES   REMARKS
DURANGO        MOSUNNY   47  20  34 SW13G20   29.95F
CORTEZ         SUNNY     51  21  30 S12       29.96F
PAGOSA SPRINGS MOSUNNY   45  16  31 SW12      29.97S
TELLURIDE      CLOUDY    43  11  26 W7        29.96F
WOLF CREEK PAS MOSUNNY   23  14  68 SW25G38   30.00S WCI   7
$$

COZ009-010-012-014-032>034-037-058>063-222300-
...CENTRAL COLORADO...

CITY           SKY/WX    TMP DP  RH WIND       PRES   REMARKS
ASPEN          CLOUDY    42  20  41 CALM      29.82F
BUENA VISTA    PTSUNNY   45  10  23 W25G32    29.79F
COPPER MTN     CLOUDY    30  12  47 S13G18    29.91F WCI  20
BERTHOUD PASS  FAIR      19  14  79 N18G29    29.87S WCI   4
COTTONWOOD PAS PTSUNNY   41   3  20 W31G47    29.82S
GUNNISON       CLOUDY    30  16  55 NW3       29.94F
KREMMLING      CLOUDY    41  16  36 W6        29.82S
LEADVILLE      CLOUDY    37  11  34 N12G18    29.84F
SALIDA         PTSUNNY   50   8  18 SW17G30   29.87F
SUNLIGHT       CLOUDY    30  21  69 CALM      29.94R
WILKERSON PASS PTSUNNY   36   9  32 W9G26     29.84S
$$

COZ069>075-222300-
...SAN LUIS VALLEY/SANGRE DE CRISTO MOUNTAINS...

CITY           SKY/WX    TMP DP  RH WIND       PRES   REMARKS
ALAMOSA        SUNNY     49  14  24 SE6       29.85F
LA VETA PASS   SUNNY     34  14  44 S23G44    29.80F WCI  22
SAGUACHE       PTSUNNY   43  18  36 S8        29.90S
$$

COZ035-036-038>040-222300-
...NORTHERN COLORADO FRONT RANGE...

CITY           SKY/WX    TMP DP  RH WIND       PRES   REMARKS
DENVER INTL AP CLOUDY    55  24  30 NE8       29.57F
DMNS CITY PARK   N/A     59  16  18 N8        29.57R
AURORA         NOT AVBL
FRONT RANGE AP CLOUDY    54  32  43 N5        29.59S
ERIE MUNI ARPT PTSUNNY   50  28  42 CALM      29.58R
BOULDER MUN AP PTSUNNY   54  27  35 NW5       29.58R
CENTENNIAL     PTSUNNY   59  15  18 E3        29.58F
BROOMFIELD     PTSUNNY   59  14  17 SW24G37   29.58F
FORT COLLINS   CLOUDY    45  25  45 N8        29.59S
LONGMONT       CLOUDY    50  27  41 NE3       29.59S
$$

COZ041-046-047-076>085-087-088-222300-
...PIKES PEAK/PALMER DIVIDE AND SOUTHERN FOOTHILLS...

CITY           SKY/WX    TMP DP  RH WIND       PRES   REMARKS
COLO. SPRINGS  PTSUNNY   57   8  14 SE5       29.63F
A. F. ACADEMY  NOT AVBL
ELLICOTT       NOT AVBL
FALCON         NOT AVBL
FORT CARSON    NOT AVBL
LIMON          MOSUNNY   60   7  12 SW8       29.60S
MONUMENT HILL  CLOUDY    52  10  19 W5        29.63F
TRINIDAD       SUNNY     59  23  25 E6        29.66F
$$

COZ042>045-048>051-090-091-222300-
...NORTHEAST COLORADO...

CITY           SKY/WX    TMP DP  RH WIND       PRES   REMARKS
GREELEY ARPT   CLOUDY    46  25  42 CALM      29.57F
AKRON          MOSUNNY   61  10  13 W5        29.58S
BURLINGTON     MOSUNNY   62  16  16 SW18      29.57F
WRAY           MOSUNNY   69   8   9 CALM      29.54S
STERLING       MOSUNNY   61  23  23 CALM      29.54F
HOLYOKE        MOSUNNY   64  10  12 SW6       29.55F
FORT MORGAN    MOSUNNY   54  18  24 NE6       29.56F
$$

COZ086-089-092>099-222300-
...SOUTHEAST COLORADO...

CITY           SKY/WX    TMP DP  RH WIND       PRES   REMARKS
PUEBLO         MOSUNNY   62  18  18 SW13      29.59F
LA JUNTA       SUNNY     65  22  19 SW16      29.58F
LAMAR          SUNNY     67  16  14 SW13      29.56F
SPRINGFIELD      N/A     67  10  11 SW12      29.61F
$$


USA.gov is the U.S. government's official web portal to all federal, state and local government web resources and services.